TimeCST,TemperatureF,Dew PointF,Humidity,Sea Level PressureIn,VisibilityMPH,Wind Direction,Wind SpeedMPH,Gust SpeedMPH,PrecipitationIn,Events,Conditions,WindDirDegrees,DateUTC
12:20 AM,64.4,62.6,94,30.15,9.0,SE,8.1,-,N/A,,Mostly Cloudy,140,2012-12-03 06:20:00
12:55 AM,64.9,63.0,93,30.14,10.0,SSE,11.5,-,N/A,,Overcast,150,2012-12-03 06:55:00
1:55 AM,64.0,63.0,96,30.13,10.0,SSE,11.5,-,N/A,,Mostly Cloudy,160,2012-12-03 07:55:00
2:30 AM,62.6,62.6,100,30.13,10.0,SSE,6.9,-,N/A,,Mostly Cloudy,150,2012-12-03 08:30:00
2:55 AM,64.0,62.1,93,30.14,10.0,SSE,6.9,-,N/A,,Overcast,150,2012-12-03 08:55:00
3:44 AM,62.6,60.8,94,30.12,10.0,SE,8.1,-,N/A,,Mostly Cloudy,130,2012-12-03 09:44:00
3:55 AM,63.0,61.0,93,30.13,10.0,SE,6.9,-,N/A,,Scattered Clouds,130,2012-12-03 09:55:00
4:09 AM,62.6,60.8,94,30.13,8.0,SSE,5.8,-,N/A,,Mostly Cloudy,160,2012-12-03 10:09:00
4:55 AM,63.0,61.0,93,30.12,10.0,SE,5.8,-,N/A,,Overcast,130,2012-12-03 10:55:00
5:08 AM,62.6,60.8,94,30.12,10.0,SE,8.1,-,N/A,,Overcast,140,2012-12-03 11:08:00
5:55 AM,63.0,61.0,93,30.13,10.0,SSE,11.5,-,N/A,,Overcast,150,2012-12-03 11:55:00
6:55 AM,63.0,61.0,93,30.14,10.0,SE,8.1,-,N/A,,Overcast,140,2012-12-03 12:55:00
7:26 AM,62.6,60.8,94,30.14,10.0,SSE,8.1,-,N/A,,Overcast,150,2012-12-03 13:26:00
7:41 AM,62.6,60.8,94,30.14,10.0,SSE,8.1,-,N/A,,Overcast,150,2012-12-03 13:41:00
7:55 AM,64.0,61.0,90,30.15,10.0,SE,9.2,-,N/A,,Overcast,140,2012-12-03 13:55:00
8:18 AM,64.4,62.6,94,30.14,10.0,SSE,10.4,-,N/A,,Overcast,150,2012-12-03 14:18:00
8:55 AM,66.9,62.1,84,30.16,10.0,SSE,11.5,-,N/A,,Overcast,150,2012-12-03 14:55:00
9:55 AM,70.0,63.0,78,30.15,10.0,SSE,12.7,-,N/A,,Overcast,160,2012-12-03 15:55:00
10:55 AM,72.0,63.0,73,30.13,10.0,SSE,11.5,21.9,N/A,,Overcast,160,2012-12-03 16:55:00
11:25 AM,73.4,62.6,69,30.12,10.0,SSE,16.1,20.7,N/A,,Overcast,160,2012-12-03 17:25:00
11:55 AM,73.0,64.0,73,30.12,10.0,South,10.4,-,N/A,,Overcast,170,2012-12-03 17:55:00
12:55 PM,70.0,64.9,84,30.10,2.0,SSW,11.5,18.4,0.03,Rain,Rain,200,2012-12-03 18:55:00
1:04 PM,69.8,66.2,88,30.08,3.0,South,6.9,-,0.01,Rain,Light Rain,180,2012-12-03 19:04:00
1:11 PM,69.8,66.2,88,30.08,10.0,South,9.2,-,0.01,,Overcast,180,2012-12-03 19:11:00
1:55 PM,70.0,64.9,84,30.09,10.0,South,6.9,-,0.01,Rain,Light Rain,170,2012-12-03 19:55:00
2:32 PM,69.8,66.2,88,30.08,1.8,WSW,4.6,-,0.06,Rain,Heavy Rain,240,2012-12-03 20:32:00
2:34 PM,69.8,66.2,88,30.08,1.0,WSW,4.6,-,0.09,Rain,Heavy Rain,250,2012-12-03 20:34:00
2:44 PM,69.8,66.2,88,30.08,1.5,South,6.9,-,0.14,Rain,Light Rain,170,2012-12-03 20:44:00
2:46 PM,69.8,66.2,88,30.08,3.0,South,4.6,-,0.14,Rain,Light Rain,180,2012-12-03 20:46:00
2:55 PM,69.1,66.9,93,30.09,4.0,SW,5.8,-,0.15,Rain,Rain,230,2012-12-03 20:55:00
2:59 PM,69.8,66.2,88,30.08,1.8,SW,6.9,-,0.05,Rain,Rain,230,2012-12-03 20:59:00
3:07 PM,69.8,66.2,88,30.08,2.0,SSW,5.8,-,0.06,Rain,Light Rain,200,2012-12-03 21:07:00
3:10 PM,69.8,66.2,88,30.08,4.0,SSW,6.9,-,0.06,Rain,Light Rain,200,2012-12-03 21:10:00
3:55 PM,68.0,66.0,93,30.09,5.0,SSE,9.2,-,0.07,Rain,Light Rain,160,2012-12-03 21:55:00
4:05 PM,68.0,64.4,88,30.08,8.0,South,8.1,-,0.00,Rain,Light Rain,170,2012-12-03 22:05:00
4:55 PM,66.9,64.9,93,30.08,10.0,SSE,10.4,-,0.02,,Overcast,150,2012-12-03 22:55:00
5:26 PM,66.2,66.2,100,30.07,10.0,SSE,6.9,-,0.00,,Overcast,160,2012-12-03 23:26:00
5:55 PM,66.9,66.0,97,30.09,10.0,SSE,11.5,-,0.00,,Overcast,150,2012-12-03 23:55:00
6:55 PM,66.9,64.9,93,30.09,10.0,SSE,8.1,-,N/A,,Overcast,150,2012-12-04 00:55:00
7:29 PM,66.2,64.4,94,30.08,10.0,South,10.4,-,N/A,,Overcast,170,2012-12-04 01:29:00
7:50 PM,66.2,64.4,94,30.08,10.0,SSE,10.4,-,N/A,,Overcast,160,2012-12-04 01:50:00
7:55 PM,66.9,64.9,93,30.09,10.0,SSE,10.4,-,N/A,,Overcast,150,2012-12-04 01:55:00
8:21 PM,68.0,66.2,94,30.09,10.0,SSE,12.7,18.4,N/A,,Overcast,160,2012-12-04 02:21:00
8:55 PM,68.0,66.0,93,30.09,10.0,SSE,12.7,-,N/A,,Overcast,160,2012-12-04 02:55:00
9:55 PM,68.0,66.0,93,30.10,10.0,South,11.5,-,N/A,,Overcast,170,2012-12-04 03:55:00
10:55 PM,68.0,66.0,93,30.10,10.0,SSE,12.7,-,N/A,,Overcast,150,2012-12-04 04:55:00
11:19 PM,68.0,66.2,94,30.09,9.0,South,9.2,-,0.00,Rain,Light Rain,170,2012-12-04 05:19:00
11:55 PM,68.0,64.9,90,30.10,10.0,South,9.2,19.6,0.00,,Overcast,170,2012-12-04 05:55:00